Regional Weather Roundup
Issued by NWS

Home | Current Version | Previous Version | Graphics & Text | Print | Product List | Glossary On
Versions: 1 2 3 4 5 6 7 8 9 10 11 12 13 14 15 16 17 18 19 20 21 22 23 24 25 26 27 28 29 30 31 32 33 34 35 36 37 38 39 40 41 42 43 44 45 46 47 48 49 50
000
ASUS43 KLMK 281902
RWRKY
KENTUCKY REGIONAL WEATHER ROUNDUP
NATIONAL WEATHER SERVICE LOUISVILLE KY
300 PM EDT MON JUL 28 2014

NOTE "FAIR" INDICATES FEW OR NO CLOUDS BELOW 12,000 FEET
WITH NO SIGNIFICANT WEATHER AND/OR OBSTRUCTIONS TO VISIBILITY.

KYZ001>023-026-027-061>063-070>075-282000-
WESTERN AND SOUTH CENTRAL KENTUCKY

CITY           SKY/WX    TMP DP  RH WIND       PRES   REMARKS
PADUCAH        PTSUNNY   80  61  52 N13       30.04F
HENDERSON      MOSUNNY   79  61  53 N8        30.02F
OWENSBORO      PTSUNNY   78  58  50 N9        30.03S
HOPKINSVILLE   MOSUNNY   81  59  47 NW13G20   30.02S
BOWLING GREEN  MOSUNNY   79  58  48 NW9G17    30.00F
GLASGOW        PTSUNNY   76  60  57 NW7       29.99F
$$

KYZ024-025-028>034-038-045-046-053-282000-
NORTH CENTRAL KENTUCKY

CITY           SKY/WX    TMP DP  RH WIND       PRES   REMARKS
LOUISVILLE/SDF PTSUNNY   77  59  53 NW17      29.99F
LOUISVILLE/LOU PTSUNNY   76  60  57 N8        30.00S
FORT KNOX      MOSUNNY   76  63  63 NW10      29.99F
$$

KYZ035>037-039>044-047>052-055>060-089>105-282000-
NORTHEAST KENTUCKY

CITY           SKY/WX    TMP DP  RH WIND       PRES   REMARKS
LEXINGTON      CLOUDY    72  60  66 NW8       30.00S
COVINGTON      CLOUDY    71  60  68 NW10      29.98R
FRANKFORT      CLOUDY    70  59  68 NW7       29.99S
$$

KYZ054-064>069-076>088-106>120-282000-
SOUTHEAST KENTUCKY

CITY           SKY/WX    TMP DP  RH WIND       PRES   REMARKS
JACKSON        CLOUDY    72  58  61 NW9       29.97S
LONDON         PTSUNNY   76  59  55 NW10      29.98S
SOMERSET       PTSUNNY   75  59  57 W10       29.99S
MIDDLESBORO    PTSUNNY   77  61  57 NW8       29.97S
MONTICELLO     CLEAR     79  64  59 W10       30.00F
$$




USA.gov is the U.S. government's official web portal to all federal, state and local government web resources and services.